(188040) = 2001 UW176

Discovered at Socorro on 2001-10-21 by LINEAR.

Orbit

Orbit type: Main Belt

Note: WebGL enabled browser required.

epoch2023-02-25.0
epoch JD2460000.5
perihelion date2020-04-01.49396
perihelion JD2458940.99396
argument of perihelion (°)10.94756
ascending node (°)22.66481
inclination (°)6.12187
eccentricity0.0669851
perihelion distance (AU)2.5806199
Tisserand w.r.t. Jupiter3.3
ΔV w.r.t. Earth (km/sec)10.2
semimajor axis (AU)2.7658936
mean anomaly (°)227.01475
mean daily motion (°/day)0.21426470
aphelion distance (AU)2.951
period (years)4.6
P-vector [x]0.83321902
P-vector [y]0.49891889
P-vector [z]0.23838208
Q-vector [x]-0.55141396
Q-vector [y]0.71769201
Q-vector [z]0.42527735
absolute magnitude16.21
phase slope0.15
uncertainty0
referenceMPO 745323
observations used459
oppositions15
arc length (days)7939
first opposition used2001
last opposition used2023
residual rms (arc-secs)0.66
perturbers coarse indicatorM-v
perturbers precise indicator003Ek
first observation date used2001-09-20.0
last observation date used2023-06-16.0
computer nameMPCLINUX
JD of orbit computation2456909.259428
perihelion JD uncertainty (days)2.0083E-04
argument of perihelion uncertainty (°)5.7415E-05
ascending node uncertainty (°)4.0405E-05
inclination uncertainty (°)6.5490E-06
eccentricity uncertainty 5.7966E-08
perihelion distance uncertainty (AU)1.6554E-07
Minimum Orbit Intersection Distances (in AU)
for orbit epoch: 2460000.5, reference: E2023-M85
Mercury2.24626
Venus1.85828
Earth1.58491
Mars1.09391
Jupiter2.34713
Saturn6.40058
Uranus15.5449
Neptune27.2685

Observations

473 total observations over interval: 2001 09 20.42535 – 2023 06 16.499191
These data are available for download (format description).

Date (UT) J2000 RA J2000 Dec Magn Location Ref
2001 09 20.42535 02 19 38.10 +13 55 13.0 20.1   704 – Lincoln Laboratory ETS, New Mexico MPS 44655
2001 09 20.43942 02 19 37.80 +13 55 12.7 19.8   704 – Lincoln Laboratory ETS, New Mexico MPS 44655
2001 09 20.45349 02 19 37.38 +13 55 12.5 20.4   704 – Lincoln Laboratory ETS, New Mexico MPS 44655
2001 10 11.48477 02 06 01.37 +13 41 20.7 19.7   644 – Palomar Mountain/NEAT MPS 44655
2001 10 11.50848 02 06 00.13 +13 41 18.6 20.2   644 – Palomar Mountain/NEAT MPS 44655
2001 10 11.53222 02 05 58.91 +13 41 15.8 20.7   644 – Palomar Mountain/NEAT MPS 44655
2001 10 14.24399 02 03 38.16 +13 36 24.8 19.4   704 – Lincoln Laboratory ETS, New Mexico MPS 44655
2001 10 14.25970 02 03 37.21 +13 36 22.1 20.2   704 – Lincoln Laboratory ETS, New Mexico MPS 44655
2001 10 14.27536 02 03 36.42 +13 36 20.7 20.1   704 – Lincoln Laboratory ETS, New Mexico MPS 44655
2001 10 14.29155 02 03 35.51 +13 36 18.5 20.0   704 – Lincoln Laboratory ETS, New Mexico MPS 44655
2001 10 14.30721 02 03 34.51 +13 36 16.3 20.2   704 – Lincoln Laboratory ETS, New Mexico MPS 44655
2001 10 15.35257 02 02 38.68 +13 34 15.4 19.8 V 691 – Steward Observatory, Kitt Peak-Spacewatch MPS 44655
2001 10 15.37465 02 02 37.44 +13 34 12.6 20.0 V 691 – Steward Observatory, Kitt Peak-Spacewatch MPS 44655
2001 10 15.39680 02 02 36.21 +13 34 09.9 20.0 V 691 – Steward Observatory, Kitt Peak-Spacewatch MPS 44655
2001 10 19.36256 01 58 59.11 +13 25 49.5 20.0   644 – Palomar Mountain/NEAT MPS 44655
2001 10 19.38373 01 58 57.89 +13 25 46.6 20.1   644 – Palomar Mountain/NEAT MPS 44655
2001 10 19.40492 01 58 56.67 +13 25 43.8 20.5   644 – Palomar Mountain/NEAT MPS 44655
2001 10 21.26548 01 57 13.57 +13 21 32.1 19.5   704 – Lincoln Laboratory ETS, New Mexico MPS 44655
2001 10 21.28209 01 57 12.58 +13 21 29.0 20.0   704 – Lincoln Laboratory ETS, New Mexico MPS 44655
2001 10 21.29973 01 57 11.56 +13 21 28.3 19.7   704 – Lincoln Laboratory ETS, New Mexico MPS 44655
2001 10 21.31616 01 57 10.59 +13 21 23.3 19.9   704 – Lincoln Laboratory ETS, New Mexico MPS 44655
2001 10 21.33279 01 57 09.67 +13 21 22.5 19.6   704 – Lincoln Laboratory ETS, New Mexico MPS 44655
2001 10 26.33864 01 52 28.38 +13 09 22.0 19.8   704 – Lincoln Laboratory ETS, New Mexico MPS 44655
2001 10 26.35513 01 52 27.44 +13 09 19.6 19.6   704 – Lincoln Laboratory ETS, New Mexico MPS 44655
2001 10 26.37161 01 52 26.49 +13 09 17.7 19.5   704 – Lincoln Laboratory ETS, New Mexico MPS 44655
2001 11 11.18314 01 38 50.39 +12 31 52.0 19.6 R 699 – Lowell Observatory-LONEOS MPS 44655
2001 11 11.20671 01 38 49.23 +12 31 50.1   699 – Lowell Observatory-LONEOS MPS 44655
2001 11 11.23012 01 38 48.14 +12 31 47.6   699 – Lowell Observatory-LONEOS MPS 44655
2001 11 11.25355 01 38 47.14 +12 31 44.3   699 – Lowell Observatory-LONEOS MPS 44655
2001 11 15.46890 01 35 48.84 +12 23 40.3 21.0   608 – Haleakala-AMOS MPS 44655
2001 11 15.47934 01 35 48.40 +12 23 38.7 21.2   608 – Haleakala-AMOS MPS 44655
2001 11 15.48983 01 35 47.97 +12 23 37.6 20.7   608 – Haleakala-AMOS MPS 44655
2001 11 17.21764 01 34 42.02 +12 20 44.2 20.0   704 – Lincoln Laboratory ETS, New Mexico MPS 44655
2001 11 17.23199 01 34 41.46 +12 20 42.6 20.2   704 – Lincoln Laboratory ETS, New Mexico MPS 44655
2001 11 17.24636 01 34 40.81 +12 20 41.2 20.2   704 – Lincoln Laboratory ETS, New Mexico MPS 44655
2001 11 17.26073 01 34 40.25 +12 20 40.9 19.8   704 – Lincoln Laboratory ETS, New Mexico MPS 44655
2001 11 17.27510 01 34 39.71 +12 20 38.7 19.7   704 – Lincoln Laboratory ETS, New Mexico MPS 44655
2001 11 20.07663 01 33 01.99 +12 16 33.9 20.2 V 691 – Steward Observatory, Kitt Peak-Spacewatch MPS 44655
2001 11 20.09843 01 33 01.24 +12 16 32.0 20.3 V 691 – Steward Observatory, Kitt Peak-Spacewatch MPS 44655
2001 11 20.12361 01 33 00.37 +12 16 29.7 20.4 V 691 – Steward Observatory, Kitt Peak-Spacewatch MPS 44655
2004 04 25.35338 15 07 27.59 -21 13 07.8 20.8 V 691 – Steward Observatory, Kitt Peak-Spacewatch MPS 139263
2004 04 25.38085 15 07 26.12 -21 13 05.4 20.8 V 691 – Steward Observatory, Kitt Peak-Spacewatch MPS 139263
2004 04 25.40869 15 07 24.64 -21 13 03.2 20.7 V 691 – Steward Observatory, Kitt Peak-Spacewatch MPS 139263
2005 08 05.36813 21 58 03.02 -21 38 18.6 19.3   644 – Palomar Mountain/NEAT MPS 139263
2005 08 05.36956 21 58 02.94 -21 38 19.1 19.4   644 – Palomar Mountain/NEAT MPS 139263
2005 08 05.38930 21 58 01.90 -21 38 24.0 19.3   644 – Palomar Mountain/NEAT MPS 139263
2005 08 05.39060 21 58 01.84 -21 38 24.4 19.3   644 – Palomar Mountain/NEAT MPS 139263
2005 08 05.42102 21 58 00.26 -21 38 31.6 19.3   644 – Palomar Mountain/NEAT MPS 139263
2005 08 05.42226 21 58 00.19 -21 38 31.8 19.7   644 – Palomar Mountain/NEAT MPS 139263
2005 09 01.23513 21 34 21.02 -22 54 40.6 19.4   644 – Palomar Mountain/NEAT MPS 141024
2005 09 01.25640 21 34 19.94 -22 54 42.2 19.5   644 – Palomar Mountain/NEAT MPS 141024
2005 09 01.28424 21 34 18.54 -22 54 44.1 19.5   644 – Palomar Mountain/NEAT MPS 141024
2005 11 06.12126 21 32 45.20 -19 23 15.7 20.2 V G96 – Mt. Lemmon Survey MPS 149329
2005 11 06.12987 21 32 45.52 -19 23 12.2 20.5 V G96 – Mt. Lemmon Survey MPS 149329
2005 11 06.13850 21 32 45.92 -19 23 08.4 21.2 V G96 – Mt. Lemmon Survey MPS 149329
2005 11 06.14708 21 32 46.32 -19 23 05.2 20.9 V G96 – Mt. Lemmon Survey MPS 149329
2006 12 13.26381 05 00 03.42 +30 51 19.4 19.6 V 703 – Catalina Sky Survey MPS 191894
2006 12 13.26881 05 00 03.13 +30 51 19.0 19.7 V 703 – Catalina Sky Survey MPS 191894
2006 12 13.27383 05 00 02.77 +30 51 18.9 18.7 V 703 – Catalina Sky Survey MPS 191894
2006 12 13.27884 05 00 02.41 +30 51 19.2 19.3 V 703 – Catalina Sky Survey MPS 191894
2006 12 18.26921 04 54 49.67 +30 47 50.3 19.4   704 – Lincoln Laboratory ETS, New Mexico MPS 191894
2006 12 18.29516 04 54 47.92 +30 47 49.2 20.2   704 – Lincoln Laboratory ETS, New Mexico MPS 191894
2006 12 18.30814 04 54 47.24 +30 47 47.8 19.5   704 – Lincoln Laboratory ETS, New Mexico MPS 191894
2006 12 18.32120 04 54 46.44 +30 47 47.0 20.2   704 – Lincoln Laboratory ETS, New Mexico MPS 191894
2008 02 07.41867 12 19 40.15 +02 55 34.6 20.9 V G96 – Mt. Lemmon Survey MPS 236147
2008 02 07.42529 12 19 40.00 +02 55 35.1 21.0 V G96 – Mt. Lemmon Survey MPS 236147
2008 02 07.43187 12 19 39.93 +02 55 36.1 20.9 V G96 – Mt. Lemmon Survey MPS 236147
2008 02 07.43846 12 19 39.75 +02 55 37.0 21.0 V G96 – Mt. Lemmon Survey MPS 236147
2008 04 05.26955 11 38 44.19 +06 04 24.6 20.4 V G96 – Mt. Lemmon Survey MPS 245672
2008 04 05.27847 11 38 43.80 +06 04 25.8 20.2 V G96 – Mt. Lemmon Survey MPS 245672
2008 04 05.28731 11 38 43.36 +06 04 27.1 20.5 V G96 – Mt. Lemmon Survey MPS 245672
2008 04 05.29618 11 38 42.97 +06 04 28.3 20.2 V G96 – Mt. Lemmon Survey MPS 245672
2008 06 01.16029 11 30 27.57 +04 43 28.0 21.6 V G96 – Mt. Lemmon Survey MPS 250921
2008 06 01.16585 11 30 27.72 +04 43 26.6 20.7 V G96 – Mt. Lemmon Survey MPS 250921
2008 06 01.17137 11 30 27.86 +04 43 25.0 21.1 V G96 – Mt. Lemmon Survey MPS 250921
2008 06 01.17691 11 30 28.00 +04 43 23.7 20.5 V G96 – Mt. Lemmon Survey MPS 250921
2010 09 06.08444 00 51 27.87 +01 46 07.0 19.4 V J75 – OAM Observatory, La Sagra MPS 347801
2010 09 06.09745 00 51 27.38 +01 46 05.4 19.5 V J75 – OAM Observatory, La Sagra MPS 347801
2010 09 06.11043 00 51 26.92 +01 46 03.9 19.5 V J75 – OAM Observatory, La Sagra MPS 347801
2010 09 12.21811 00 47 34.17 +01 32 11.0   691 – Steward Observatory, Kitt Peak-Spacewatch MPS 349263
2010 09 12.23573 00 47 33.45 +01 32 08.1   691 – Steward Observatory, Kitt Peak-Spacewatch MPS 349263
2010 09 12.25334 00 47 32.63 +01 32 06.0   691 – Steward Observatory, Kitt Peak-Spacewatch MPS 349263
2010 09 13.464489 00 46 41.120 +01 28 59.72 19.68 i F51 – Pan-STARRS 1, Haleakala MPS 365179
2010 09 13.476086 00 46 40.597 +01 28 57.84 19.65 i F51 – Pan-STARRS 1, Haleakala MPS 365179
2010 09 16.24081 00 44 37.73 +01 21 29.8 19.8 V 691 – Steward Observatory, Kitt Peak-Spacewatch MPS 349263
2010 09 16.25847 00 44 36.88 +01 21 26.8 19.8 V 691 – Steward Observatory, Kitt Peak-Spacewatch MPS 349263
2010 09 16.27613 00 44 36.04 +01 21 24.0 19.7 V 691 – Steward Observatory, Kitt Peak-Spacewatch MPS 349263
2010 09 29.32928 00 33 39.45 +00 42 19.3 19.3 V G96 – Mt. Lemmon Survey MPS 350897
